Overview Statistics Trail Chart Weather Telemetry Raw packets
 

This is the latest recevied weather packets stored in our database for station/object LU3HGB-WX. If no packets are shown the sender has not sent any weather packets the latest 10 day(s).

<< 60 61 62 63 64 65 66 >>
Time Temp. Humidity Pressure Rain* Wind** Luminosity Snow
1788269260 16.11° C 45% 1022 hPa 0 mm - 562 W/m² -
1788268959 16.67° C 46% 1022 hPa 0 mm - 546 W/m² -
1788268660 16.67° C 40% 1022 hPa 0 mm - 529 W/m² -
1788268363 16.11° C 44% 1021 hPa 0 mm - 509 W/m² -
1788268059 15.56° C 42% 1021 hPa 0 mm - 489 W/m² -
1788267760 15° C 48% 1021 hPa 0 mm - 467 W/m² -
1788267460 13.89° C 50% 1022 hPa 0 mm - 444 W/m² -
1788267160 12.78° C 54% 1022 hPa 0 mm - 427 W/m² -
1788266860 12.22° C 57% 1022 hPa 0 mm - 406 W/m² -
1788266561 11.11° C 64% 1022 hPa 0 mm - 386 W/m² -
1788266259 10.56° C 61% 1022 hPa 0 mm - 364 W/m² -
1788265960 9.44° C 67% 1022 hPa 0 mm - 344 W/m² -
1788265659 8.33° C 71% 1022 hPa 0 mm - 319 W/m² -
1788265360 8.33° C 71% 1022 hPa 0 mm - 302 W/m² -
1788265060 7.78° C 72% 1022 hPa 0 mm - 280 W/m² -
1788264470 7.22° C 76% 1022 hPa 0 mm - 239 W/m² -
1788264160 6.67° C 77% 1022 hPa 0 mm - 215 W/m² -
1788263859 5.56° C 81% 1022 hPa 0 mm - 191 W/m² -
1788263560 4.44° C 86% 1022 hPa 0 mm - 185 W/m² -
1788263259 3.33° C 90% 1022 hPa 0 mm - 182 W/m² -
1788262960 2.78° C 90% 1022 hPa 0 mm - 163 W/m² -
1788262659 1.67° C 93% 1022 hPa 0 mm - 141 W/m² -
1788262360 1.11° C 94% 1022 hPa 0 mm - 84 W/m² -
1788262059 1.11° C 92% 1022 hPa 0 mm - 60 W/m² -
1788261759 0.56° C 92% 1022 hPa 0 mm - 52 W/m² -

* Rain latest hour (hover to see other rain measurements)
** Current wind speed in m/s (hover to see current wind gust speed)